SWA3782 KPHX-KDEN

Flight info

Callsign SWA3782
Flight time 1h 23m
Altitude 37000
Route MRBIL1 JARPA CRUDD TBARR4
Aircraft B38M/M-SDE1FGHILORVWXY/HB1

Departure

Time 2026-05-07 18:47
Airport Phoenix Sky Harbor International Airport (KPHX)

Arrival

Time 2026-05-07 20:10
Airport Denver International Airport (KDEN)
Time Latitude Longitude Altitude Speed Heading
2026-05-07 18:22 33.43352 -111.99396 1121 ft 0 kts 350°
2026-05-07 18:37 33.43337 -111.99393 1116 ft 4 kts 350°
2026-05-07 18:37 33.43313 -111.99388 1124 ft 2 kts 350°
2026-05-07 18:37 33.43291 -111.99379 1122 ft 4 kts 311°
2026-05-07 18:38 33.43283 -111.99352 1125 ft 4 kts 271°
2026-05-07 18:38 33.43282 -111.99345 1128 ft 1 kts 270°
2026-05-07 18:41 33.43282 -111.99349 1128 ft 1 kts 270°
2026-05-07 18:41 33.43282 -111.99370 1120 ft 4 kts 271°
2026-05-07 18:41 33.43282 -111.99417 1122 ft 8 kts 268°
2026-05-07 18:41 33.43282 -111.99500 1127 ft 12 kts 271°
2026-05-07 18:42 33.43283 -111.99623 1122 ft 17 kts 270°
2026-05-07 18:42 33.43282 -111.99782 1125 ft 20 kts 271°
2026-05-07 18:42 33.43283 -111.99957 1125 ft 22 kts 271°
2026-05-07 18:42 33.43283 -112.00142 1122 ft 23 kts 270°
2026-05-07 18:43 33.43282 -112.00344 1122 ft 25 kts 270°
2026-05-07 18:43 33.43236 -112.00484 1134 ft 18 kts 224°
2026-05-07 18:43 33.43214 -112.00633 1133 ft 19 kts 270°
2026-05-07 18:43 33.43214 -112.00805 1133 ft 22 kts 270°
2026-05-07 18:44 33.43214 -112.00998 1121 ft 24 kts 270°
2026-05-07 18:44 33.43214 -112.01209 1121 ft 26 kts 270°
2026-05-07 18:44 33.43214 -112.01426 1120 ft 24 kts 270°
2026-05-07 18:44 33.43215 -112.01630 1128 ft 25 kts 270°
2026-05-07 18:45 33.43215 -112.01846 1124 ft 27 kts 269°
2026-05-07 18:45 33.43215 -112.02052 1121 ft 25 kts 270°
2026-05-07 18:45 33.43214 -112.02265 1121 ft 27 kts 270°
2026-05-07 18:45 33.43215 -112.02439 1120 ft 17 kts 270°
2026-05-07 18:46 33.43215 -112.02593 1120 ft 20 kts 269°
2026-05-07 18:46 33.43180 -112.02700 1122 ft 12 kts 180°
2026-05-07 18:46 33.43107 -112.02681 1126 ft 8 kts 105°
2026-05-07 18:46 33.43107 -112.02595 1128 ft 17 kts 89°
2026-05-07 18:47 33.43106 -112.02134 1130 ft 93 kts 90°
2026-05-07 18:47 33.43102 -112.01075 1135 ft 159 kts 90°
2026-05-07 18:47 33.43093 -111.99571 1437 ft 191 kts 90°
2026-05-07 18:47 33.43154 -111.97957 2316 ft 197 kts 86°
2026-05-07 18:48 33.43241 -111.96295 3008 ft 213 kts 86°
2026-05-07 18:48 33.43351 -111.94380 3296 ft 246 kts 86°
2026-05-07 18:48 33.43456 -111.92274 4066 ft 258 kts 86°
2026-05-07 18:48 33.43545 -111.90111 5044 ft 257 kts 86°
2026-05-07 18:49 33.43733 -111.87964 5935 ft 266 kts 74°
2026-05-07 18:49 33.44555 -111.86019 6786 ft 269 kts 47°
2026-05-07 18:49 33.46102 -111.84707 7655 ft 275 kts 21°
2026-05-07 18:49 33.47964 -111.84331 8467 ft 283 kts
2026-05-07 18:50 33.49963 -111.84283 9069 ft 283 kts
2026-05-07 18:50 33.51905 -111.84221 10088 ft 283 kts
2026-05-07 18:50 33.53871 -111.84148 10979 ft 286 kts
2026-05-07 18:50 33.55876 -111.84064 11810 ft 289 kts
2026-05-07 18:51 33.57903 -111.83977 12661 ft 294 kts
2026-05-07 18:51 33.59966 -111.83887 13512 ft 298 kts
2026-05-07 18:51 33.62042 -111.83795 14320 ft 300 kts
2026-05-07 18:51 33.64141 -111.83703 15109 ft 303 kts
2026-05-07 18:52 33.66215 -111.83335 15685 ft 310 kts 17°
2026-05-07 18:52 33.68358 -111.82623 15978 ft 329 kts 18°
2026-05-07 18:52 33.70616 -111.81891 16395 ft 343 kts 17°
2026-05-07 18:52 33.72945 -111.81136 17010 ft 348 kts 17°
2026-05-07 18:53 33.75295 -111.80373 17703 ft 351 kts 17°
2026-05-07 18:53 33.77665 -111.79604 18388 ft 354 kts 17°
2026-05-07 18:53 33.79942 -111.78489 18967 ft 355 kts 34°
2026-05-07 18:53 33.81916 -111.76758 19540 ft 358 kts 37°
2026-05-07 18:54 33.83925 -111.74972 20135 ft 361 kts 38°
2026-05-07 18:54 33.85941 -111.73154 20721 ft 364 kts 38°
2026-05-07 18:54 33.87958 -111.71317 21327 ft 367 kts 38°
2026-05-07 18:54 33.89997 -111.69448 21906 ft 370 kts 38°
2026-05-07 18:55 33.92048 -111.67563 22485 ft 373 kts 39°
2026-05-07 18:55 33.94107 -111.65668 23056 ft 375 kts 39°
2026-05-07 18:55 33.96190 -111.63750 23591 ft 378 kts 39°
2026-05-07 18:55 33.98291 -111.61812 24045 ft 381 kts 39°
2026-05-07 18:56 34.00434 -111.59907 24509 ft 385 kts 34°
2026-05-07 18:56 34.02704 -111.58217 24992 ft 386 kts 33°
2026-05-07 18:56 34.04992 -111.56490 25433 ft 389 kts 34°
2026-05-07 18:56 34.07286 -111.54739 25987 ft 391 kts 34°
2026-05-07 18:57 34.09581 -111.52978 26455 ft 393 kts 34°
2026-05-07 18:57 34.11896 -111.51200 26919 ft 395 kts 34°
2026-05-07 18:57 34.14227 -111.49402 27338 ft 399 kts 34°
2026-05-07 18:57 34.16573 -111.47590 27799 ft 401 kts 34°
2026-05-07 18:58 34.18925 -111.45774 28249 ft 403 kts 34°
2026-05-07 18:58 34.21265 -111.43965 28677 ft 405 kts 34°
2026-05-07 18:58 34.23680 -111.42098 29087 ft 408 kts 34°
2026-05-07 18:58 34.26043 -111.40270 29474 ft 410 kts 34°
2026-05-07 18:59 34.28451 -111.38406 29872 ft 412 kts 34°
2026-05-07 18:59 34.30864 -111.36536 30248 ft 414 kts 34°
2026-05-07 18:59 34.33300 -111.34648 30544 ft 417 kts 34°
2026-05-07 18:59 34.35753 -111.32744 30788 ft 420 kts 34°
2026-05-07 19:00 34.38218 -111.30830 31086 ft 422 kts 34°
2026-05-07 19:00 34.40693 -111.28908 31414 ft 424 kts 34°
2026-05-07 19:00 34.43182 -111.26972 31698 ft 426 kts 34°
2026-05-07 19:00 34.45669 -111.25038 31926 ft 427 kts 34°
2026-05-07 19:01 34.48175 -111.23087 32234 ft 429 kts 34°
2026-05-07 19:01 34.50691 -111.21126 32578 ft 430 kts 34°
2026-05-07 19:01 34.53205 -111.19166 33004 ft 429 kts 34°
2026-05-07 19:01 34.55714 -111.17208 33440 ft 428 kts 34°
2026-05-07 19:02 34.58214 -111.15257 33897 ft 427 kts 34°
2026-05-07 19:02 34.60706 -111.13310 34294 ft 426 kts 33°
2026-05-07 19:02 34.63082 -111.11168 34529 ft 426 kts 45°
2026-05-07 19:02 34.65157 -111.08611 34849 ft 425 kts 44°
2026-05-07 19:03 34.67285 -111.06091 35053 ft 428 kts 44°
2026-05-07 19:03 34.68687 -111.04414 35244 ft 428 kts 45°
2026-05-07 19:03 34.70801 -111.01871 35494 ft 429 kts 45°
2026-05-07 19:03 34.72921 -110.99309 35734 ft 431 kts 45°
2026-05-07 19:04 34.75737 -110.95899 36068 ft 432 kts 45°
2026-05-07 19:04 34.77871 -110.93314 36317 ft 433 kts 45°
2026-05-07 19:04 34.80006 -110.90723 36556 ft 434 kts 45°
2026-05-07 19:04 34.81450 -110.88970 36729 ft 434 kts 45°
2026-05-07 19:05 34.83592 -110.86368 36969 ft 435 kts 45°
2026-05-07 19:05 34.85699 -110.83807 37149 ft 437 kts 45°
2026-05-07 19:05 34.87838 -110.81204 37164 ft 436 kts 45°
2026-05-07 19:06 34.92135 -110.75971 37197 ft 437 kts 45°
2026-05-07 19:06 34.98580 -110.68106 37192 ft 437 kts 45°
2026-05-07 19:07 35.02847 -110.62887 37193 ft 437 kts 45°
2026-05-07 19:07 35.04991 -110.60262 37045 ft 437 kts 45°
2026-05-07 19:07 35.07127 -110.57645 37045 ft 437 kts 45°
2026-05-07 19:08 35.11419 -110.52380 37048 ft 437 kts 45°
2026-05-07 19:08 35.15706 -110.47113 37043 ft 437 kts 45°
2026-05-07 19:09 35.19997 -110.41832 37043 ft 438 kts 45°
2026-05-07 19:09 35.24285 -110.36548 37036 ft 439 kts 45°
2026-05-07 19:10 35.28591 -110.31231 37044 ft 440 kts 45°
2026-05-07 19:10 35.32898 -110.25906 37038 ft 440 kts 45°
2026-05-07 19:11 35.37203 -110.20574 37042 ft 440 kts 45°
2026-05-07 19:11 35.41494 -110.15251 37043 ft 440 kts 45°
2026-05-07 19:12 35.45803 -110.09897 37039 ft 442 kts 45°
2026-05-07 19:12 35.50135 -110.04506 37039 ft 443 kts 45°
2026-05-07 19:13 35.54435 -109.99145 37046 ft 442 kts 44°
2026-05-07 19:13 35.58714 -109.93804 37037 ft 438 kts 44°
2026-05-07 19:14 35.62993 -109.88454 37041 ft 439 kts 44°
2026-05-07 19:14 35.67269 -109.83100 37040 ft 439 kts 44°
2026-05-07 19:15 35.71640 -109.77877 37040 ft 438 kts 39°
2026-05-07 19:15 35.76244 -109.72940 37032 ft 440 kts 40°
2026-05-07 19:16 35.80828 -109.67946 37035 ft 440 kts 40°
2026-05-07 19:16 35.85396 -109.62951 37037 ft 437 kts 40°
2026-05-07 19:17 35.89931 -109.57985 37039 ft 436 kts 40°
2026-05-07 19:17 35.94466 -109.53009 37036 ft 436 kts 40°
2026-05-07 19:18 35.98985 -109.48043 37037 ft 436 kts 40°
2026-05-07 19:18 36.03517 -109.43055 37042 ft 438 kts 40°
2026-05-07 19:19 36.08078 -109.38026 37044 ft 439 kts 40°
2026-05-07 19:19 36.12637 -109.32991 37033 ft 439 kts 40°
2026-05-07 19:20 36.17183 -109.27964 37052 ft 439 kts 40°
2026-05-07 19:20 36.21726 -109.22931 37057 ft 438 kts 40°
2026-05-07 19:21 36.26272 -109.17887 37059 ft 438 kts 40°
2026-05-07 19:21 36.30811 -109.12842 37058 ft 438 kts 40°
2026-05-07 19:22 36.35346 -109.07794 37060 ft 441 kts 40°
2026-05-07 19:22 36.39918 -109.02695 37063 ft 441 kts 40°
2026-05-07 19:23 36.44448 -108.97636 37068 ft 441 kts 40°
2026-05-07 19:23 36.49004 -108.92539 37072 ft 441 kts 40°
2026-05-07 19:24 36.53559 -108.87435 37070 ft 441 kts 40°
2026-05-07 19:24 36.58107 -108.82330 37081 ft 441 kts 40°
2026-05-07 19:25 36.62661 -108.77210 37090 ft 441 kts 40°
2026-05-07 19:25 36.67227 -108.72067 37083 ft 444 kts 40°
2026-05-07 19:26 36.71802 -108.66907 37098 ft 444 kts 40°
2026-05-07 19:26 36.76380 -108.61734 37113 ft 444 kts 40°
2026-05-07 19:27 36.80961 -108.56548 37135 ft 444 kts 40°
2026-05-07 19:27 36.85536 -108.51362 37145 ft 444 kts 40°
2026-05-07 19:28 36.90105 -108.46172 37143 ft 444 kts 40°
2026-05-07 19:28 36.94682 -108.40967 37146 ft 446 kts 39°
2026-05-07 19:29 36.99243 -108.35767 37142 ft 447 kts 40°
2026-05-07 19:29 37.03840 -108.30520 37127 ft 447 kts 40°
2026-05-07 19:30 37.08427 -108.25275 37119 ft 447 kts 40°
2026-05-07 19:30 37.13018 -108.20017 37116 ft 447 kts 40°
2026-05-07 19:31 37.17609 -108.14749 37117 ft 447 kts 40°
2026-05-07 19:31 37.22195 -108.09478 37116 ft 447 kts 40°
2026-05-07 19:32 37.26767 -108.04215 37124 ft 447 kts 39°
2026-05-07 19:32 37.31282 -107.99007 37117 ft 445 kts 39°
2026-05-07 19:33 37.35842 -107.93738 37114 ft 446 kts 39°
2026-05-07 19:33 37.40400 -107.88464 37115 ft 446 kts 40°
2026-05-07 19:34 37.44951 -107.83188 37133 ft 446 kts 40°
2026-05-07 19:34 37.49490 -107.77916 37136 ft 446 kts 40°
2026-05-07 19:35 37.54048 -107.72614 37151 ft 446 kts 39°
2026-05-07 19:35 37.58598 -107.67313 37134 ft 445 kts 39°
2026-05-07 19:36 37.63138 -107.62015 37159 ft 445 kts 39°
2026-05-07 19:36 37.67686 -107.56699 37170 ft 445 kts 39°
2026-05-07 19:37 37.72204 -107.51410 37163 ft 445 kts 40°
2026-05-07 19:37 37.76771 -107.46037 37179 ft 446 kts 39°
2026-05-07 19:38 37.81267 -107.40739 37175 ft 445 kts 39°
2026-05-07 19:38 37.85795 -107.35397 37188 ft 446 kts 39°
2026-05-07 19:39 37.90331 -107.30034 37183 ft 446 kts 39°
2026-05-07 19:39 37.94867 -107.24666 37174 ft 446 kts 39°
2026-05-07 19:40 37.99385 -107.19307 37181 ft 446 kts 39°
2026-05-07 19:40 38.03917 -107.13923 37180 ft 446 kts 39°
2026-05-07 19:41 38.08448 -107.08529 37180 ft 447 kts 39°
2026-05-07 19:41 38.12985 -107.03120 37184 ft 447 kts 39°
2026-05-07 19:42 38.17190 -106.97261 37190 ft 453 kts 45°
2026-05-07 19:42 38.21253 -106.91129 37188 ft 453 kts 46°
2026-05-07 19:43 38.25294 -106.84992 37174 ft 453 kts 46°
2026-05-07 19:43 38.29338 -106.78834 37182 ft 453 kts 46°
2026-05-07 19:44 38.33364 -106.72693 37187 ft 453 kts 46°
2026-05-07 19:44 38.37381 -106.66556 37186 ft 455 kts 46°
2026-05-07 19:45 38.41431 -106.60354 37159 ft 455 kts 45°
2026-05-07 19:45 38.45472 -106.54154 37158 ft 455 kts 45°
2026-05-07 19:46 38.49501 -106.47963 37158 ft 454 kts 45°
2026-05-07 19:46 38.53539 -106.41744 37132 ft 454 kts 45°
2026-05-07 19:47 38.57572 -106.35521 37180 ft 455 kts 45°
2026-05-07 19:47 38.61604 -106.29289 37114 ft 458 kts 45°
2026-05-07 19:48 38.63626 -106.26158 36404 ft 458 kts 45°
2026-05-07 19:48 38.65672 -106.23020 35517 ft 462 kts 45°
2026-05-07 19:48 38.67740 -106.19865 34863 ft 463 kts 45°
2026-05-07 19:48 38.69798 -106.16717 34354 ft 458 kts 45°
2026-05-07 19:49 38.71825 -106.13617 33870 ft 452 kts 45°
2026-05-07 19:49 38.73838 -106.10532 33285 ft 449 kts 45°
2026-05-07 19:49 38.75831 -106.07477 32695 ft 446 kts 45°
2026-05-07 19:49 38.77811 -106.04437 32149 ft 443 kts 45°
2026-05-07 19:50 38.79115 -106.02435 31792 ft 441 kts 45°
2026-05-07 19:50 38.81068 -105.99433 31261 ft 439 kts 45°
2026-05-07 19:50 38.83021 -105.96427 30670 ft 438 kts 45°
2026-05-07 19:50 38.84963 -105.93436 29931 ft 437 kts 45°
2026-05-07 19:51 38.86905 -105.90443 29258 ft 435 kts 45°
2026-05-07 19:51 38.88836 -105.87458 28660 ft 433 kts 45°
2026-05-07 19:51 38.90749 -105.84495 28151 ft 429 kts 45°
2026-05-07 19:51 38.92659 -105.81533 27728 ft 431 kts 45°
2026-05-07 19:52 38.94566 -105.78573 27237 ft 430 kts 45°
2026-05-07 19:52 38.96457 -105.75637 26738 ft 426 kts 45°
2026-05-07 19:52 38.98337 -105.72715 26239 ft 423 kts 45°
2026-05-07 19:52 39.00206 -105.69806 25751 ft 420 kts 45°
2026-05-07 19:53 39.02052 -105.66931 25275 ft 417 kts 45°
2026-05-07 19:53 39.03893 -105.64060 24827 ft 415 kts 45°
2026-05-07 19:53 39.05729 -105.61195 24345 ft 413 kts 45°
2026-05-07 19:53 39.07550 -105.58350 23936 ft 411 kts 46°
2026-05-07 19:54 39.09366 -105.55512 23415 ft 410 kts 46°
2026-05-07 19:54 39.11170 -105.52689 22894 ft 407 kts 46°
2026-05-07 19:54 39.12954 -105.49896 22412 ft 403 kts 46°
2026-05-07 19:54 39.14728 -105.47112 21949 ft 400 kts 46°
2026-05-07 19:55 39.16478 -105.44333 21461 ft 399 kts 47°
2026-05-07 19:55 39.18219 -105.41570 21035 ft 395 kts 47°
2026-05-07 19:55 39.19942 -105.38835 20591 ft 392 kts 47°
2026-05-07 19:55 39.21654 -105.36114 20145 ft 389 kts 47°
2026-05-07 19:56 39.23355 -105.33410 19706 ft 385 kts 46°
2026-05-07 19:56 39.25014 -105.30769 19276 ft 373 kts 47°
2026-05-07 19:56 39.26620 -105.28205 18860 ft 361 kts 47°
2026-05-07 19:56 39.28056 -105.25613 18366 ft 357 kts 61°
2026-05-07 19:57 39.28762 -105.22570 17899 ft 351 kts 80°
2026-05-07 19:57 39.29125 -105.19490 17472 ft 346 kts 78°
2026-05-07 19:57 39.29512 -105.16411 17035 ft 347 kts 79°
2026-05-07 19:57 39.29886 -105.13331 16618 ft 347 kts 79°
2026-05-07 19:58 39.30254 -105.10250 16208 ft 347 kts 79°
2026-05-07 19:58 39.30613 -105.07207 15799 ft 347 kts 79°
2026-05-07 19:58 39.30974 -105.04139 15411 ft 342 kts 79°
2026-05-07 19:58 39.31324 -105.01150 15019 ft 332 kts 78°
2026-05-07 19:59 39.31815 -104.98303 14776 ft 317 kts 73°
2026-05-07 19:59 39.32328 -104.95576 14521 ft 306 kts 74°
2026-05-07 19:59 39.32811 -104.92954 14265 ft 297 kts 74°
2026-05-07 19:59 39.33277 -104.90398 14047 ft 286 kts 74°
2026-05-07 20:00 39.33729 -104.87935 13961 ft 281 kts 71°
2026-05-07 20:00 39.34322 -104.85537 13768 ft 281 kts 68°
2026-05-07 20:00 39.34924 -104.83168 13483 ft 279 kts 68°
2026-05-07 20:00 39.35516 -104.80800 13159 ft 275 kts 69°
2026-05-07 20:01 39.36111 -104.78499 12928 ft 265 kts 65°
2026-05-07 20:01 39.36762 -104.76338 12795 ft 248 kts 65°
2026-05-07 20:01 39.37366 -104.74317 12613 ft 237 kts 65°
2026-05-07 20:01 39.37966 -104.72300 12161 ft 243 kts 65°
2026-05-07 20:02 39.38680 -104.70401 12047 ft 233 kts 46°
2026-05-07 20:02 39.39893 -104.69047 12084 ft 231 kts 30°
2026-05-07 20:02 39.41231 -104.67870 12055 ft 233 kts 28°
2026-05-07 20:02 39.42645 -104.66949 11975 ft 225 kts 11°
2026-05-07 20:03 39.44180 -104.66640 11987 ft 222 kts 359°
2026-05-07 20:03 39.45720 -104.66544 12022 ft 222 kts 358°
2026-05-07 20:03 39.47215 -104.66495 11999 ft 222 kts 356°
2026-05-07 20:03 39.48742 -104.66462 12002 ft 221 kts 356°
2026-05-07 20:04 39.50263 -104.66434 11710 ft 219 kts 356°
2026-05-07 20:04 39.51778 -104.66413 11389 ft 218 kts 355°
2026-05-07 20:04 39.53307 -104.66393 11099 ft 220 kts 356°
2026-05-07 20:04 39.54840 -104.66373 10810 ft 220 kts 354°
2026-05-07 20:05 39.56366 -104.66355 10535 ft 219 kts 355°
2026-05-07 20:05 39.57883 -104.66339 10248 ft 219 kts 354°
2026-05-07 20:05 39.59399 -104.66321 9987 ft 218 kts 355°
2026-05-07 20:05 39.60904 -104.66303 9683 ft 218 kts 355°
2026-05-07 20:06 39.62425 -104.66286 9403 ft 217 kts 355°
2026-05-07 20:06 39.63922 -104.66270 9096 ft 217 kts 355°
2026-05-07 20:06 39.65427 -104.66251 8813 ft 213 kts 355°
2026-05-07 20:06 39.66895 -104.66236 8524 ft 208 kts 355°
2026-05-07 20:07 39.68290 -104.66219 8296 ft 195 kts 355°
2026-05-07 20:07 39.69624 -104.66203 8027 ft 189 kts 355°
2026-05-07 20:07 39.70924 -104.66191 7783 ft 188 kts 355°
2026-05-07 20:07 39.72235 -104.66175 7534 ft 187 kts 355°
2026-05-07 20:08 39.73519 -104.66160 7328 ft 187 kts 354°
2026-05-07 20:08 39.74823 -104.66145 7082 ft 187 kts 355°
2026-05-07 20:08 39.76085 -104.66124 6837 ft 173 kts 354°
2026-05-07 20:08 39.77238 -104.66115 6636 ft 164 kts 354°
2026-05-07 20:09 39.78375 -104.66105 6433 ft 161 kts 352°
2026-05-07 20:09 39.79478 -104.66086 6175 ft 160 kts 352°
2026-05-07 20:09 39.80606 -104.66088 5946 ft 163 kts 351°
2026-05-07 20:10 39.82868 -104.66055 5475 ft 166 kts 353°
2026-05-07 20:10 39.83887 -104.66041 5424 ft 114 kts
2026-05-07 20:10 39.84501 -104.66036 5417 ft 68 kts
2026-05-07 20:10 39.84876 -104.66031 5406 ft 49 kts
2026-05-07 20:11 39.85166 -104.66081 5397 ft 32 kts 335°
2026-05-07 20:11 39.85356 -104.66203 5396 ft 24 kts 330°
2026-05-07 20:11 39.85524 -104.66239 5395 ft 24 kts
2026-05-07 20:11 39.85706 -104.66236 5393 ft 27 kts
2026-05-07 20:12 39.85895 -104.66234 5390 ft 23 kts
2026-05-07 20:12 39.86059 -104.66230 5388 ft 22 kts 351°
2026-05-07 20:12 39.86106 -104.66362 5383 ft 17 kts 272°
2026-05-07 20:12 39.86113 -104.66532 5377 ft 21 kts 283°
2026-05-07 20:13 39.86128 -104.66722 5380 ft 21 kts 270°
2026-05-07 20:13 39.86129 -104.66917 5380 ft 21 kts 271°
2026-05-07 20:13 39.86130 -104.67112 5380 ft 21 kts 270°
2026-05-07 20:13 39.86131 -104.67288 5380 ft 19 kts 270°
2026-05-07 20:14 39.86137 -104.67452 5375 ft 13 kts 301°
2026-05-07 20:14 39.86190 -104.67540 5378 ft 13 kts 276°
2026-05-07 20:14 39.86196 -104.67660 5379 ft 9 kts 275°
2026-05-07 20:14 39.86225 -104.67686 5379 ft 5 kts 352°
2026-05-07 20:15 39.86250 -104.67687 5377 ft 2 kts
2026-05-07 20:15 39.86253 -104.67686 5377 ft 0 kts